Showing default

GLOBALSTAR M038, 25624

Orbit data source: Space-Track

GLOBALSTAR M038, 25624 is a payload satellite owned by Globalstar (US) in LEO that was launched on Tue, 09 Feb 1999 UTC via a SOYUZ-U-PVB launch vehicle from the Tyuratam Missile And Space Complex (TTMTR). Payload-class satellites include a variety of spacecraft equipped with specific instruments for various scientific and technological missions. These include communications satellites like Starlink; space stations such as the ISS; scientific satellites like the Hubble; Earth observation satellites from companies like Planet Labs, Umbra, and HawkEye 360; GPS; miniature CubeSats for education and research; and military/defense satellites.

Loading next visibility...
Identifier
25624, 1999-004D
Orbit
LEO
Country
Flag of UnknownUnknown / GLOB
Related business
Manufacturer
SS/Loral
Mission
Non-operational Commercial Communications
Bus & Motor
LS-400, LS-400 AOCS
Mass
450 kg wet, 380 kg dry
Launch date (UTC)
1999-02-09 (27 years ago)
Launch vehicle
SOYUZ-U-PVB
Launch site
Tyuratam Missile And Space Complex (TTMTR)
Object type
Payload
Rocket body
Debris
Shape & HBR
Box + 2 Pan, 6.0 m
Radar Cross Section
5.587 m², Large (>1 m²)

Expand to show TLE details & history
Last TLE update: 15 hours ago

TLE from 15 hours ago
0 GLOBALSTAR M038
1 25624U 99004D   25258.21659640 -.00000079  00000-0  12908-3 0  9996
2 25624  51.9966 172.2966 0001178 246.9670 278.4167 12.32532064213471
Epoch: 2025-09-15T05:11Z
TLE epoch observation values (Epoch: 2025-09-15T05:11:53.928Z)
Latitude
11.47453°
Longitude
-89.18406°
Altitude
1,538.206 km
Speed
7.099 km/s
True Right ascension
22h 52m 51s
True Declination
11° 24' 51"
Sunlit
Object was in full shadow at epoch
Visualization orbit readout
Latitude
Unknown
Longitude
Unknown
Altitude
Unknown
Speed
Unknown
Apparent Right ascension
Unknown
Apparent Declination
Unknown
Sunlit
N/A
Visualization observer readout
Local Sidereal Time
12:32:41
Azimuth
Unknown
Elevation
Unknown
Doppler factor
Unknown
Orbital elements
Apogee altitude
1,539.74 km
Perigee altitude
1,537.874 km
Semi-major axis
7,916.944 km
Eccentricity
0.00012
Inclination
51.9966°
RAAN
172.2966°
Arg. of periapsis
246.967°
True anomaly
278.40335°
Mean anomaly
278.4167°
Eccentric anomaly
278.41002°
Mean motion
3.08111 °/min
Orbital period
116.84 mins
BSTAR
0.00012908
Loading maneuver chart data...
Computing Atmospheric mass density...
Loading historical data...
Loading historical data...
Loading historical data...
Loading historical data...
Loading historical data...
Loading historical data...
Loading historical data...
Other satellites on launch #4 in the year 1999 (1999-02-09 UTC)

Documentation

Showing up to 5 results
|